Wind_Speed
49 49 49 49 49 50 51 52 53 53 51 51 53 55 55 54 56 57 56 56 57 57 57 59 60 58 55 50 48 48 49 48 50 54 59 59 58 59 58 56 56 57 59 59 58 57 58 59 60 62 68 73 76 77 78 78 78 76 72 69 65 54 43 43 47 53 56 53 50 49 49 50 49 47 50 53 56 61 65 68 69 69 69 69 71
49 49 49 48 49 50 51 52 53 53 53 54 55 56 56 56 57 58 58 57 56 55 56 59 59 55 51 47 46 48 48 48 50 55 59 59 60 61 60 57 56 58 59 60 59 59 60 61 62 65 71 76 78 79 79 80 82 79 74 71 66 57 46 41 43 48 55 55 51 48 48 50 50 48 47 49 52 56 62 67 70 70 70 70 71
49 49 49 49 49 50 52 53 55 55 56 56 56 57 57 57 59 60 58 55 52 52 55 59 58 53 49 48 48 48 49 49 51 55 58 59 61 62 60 57 56 58 60 61 60 60 62 63 65 68 74 78 80 80 81 83 84 82 77 73 68 60 48 41 41 44 50 55 53 49 47 48 49 49 47 47 48 52 58 64 69 72 72 71 71
50 50 50 50 51 52 54 55 57 58 57 57 58 59 59 60 61 59 55 52 50 49 55 61 60 54 51 50 49 50 51 52 54 57 60 62 63 63 62 60 60 61 62 62 61 62 64 65 68 73 77 80 81 82 84 86 87 84 80 75 69 62 51 41 39 41 45 51 54 52 48 47 48 48 48 49 48 49 53 60 66 71 73 73 73
51 52 52 52 53 55 56 58 59 58 57 57 57 57 56 58 58 56 54 53 50 51 58 62 59 55 53 52 51 51 53 55 57 60 63 65 66 66 65 64 64 65 65 64 64 65 66 68 72 77 80 81 83 85 87 90 90 86 82 77 70 63 53 42 38 39 42 47 52 53 50 47 47 48 49 51 51 48 49 56 62 68 72 74 75
52 53 54 55 55 56 60 62 60 56 55 55 52 51 52 54 55 56 57 56 52 55 62 63 59 57 54 51 51 53 54 57 60 63 65 67 67 68 69 68 68 68 68 68 68 68 69 72 76 79 81 83 85 88 91 92 92 89 84 78 71 62 53 43 39 39 41 45 50 53 52 49 48 48 49 52 53 51 48 52 58 64 69 74 76
53 54 54 54 55 58 61 58 52 49 51 51 48 49 51 52 55 57 58 57 57 61 65 62 59 58 55 52 53 54 55 59 64 66 67 68 69 71 72 72 72 72 71 71 71 72 74 77 79 81 83 85 89 92 95 95 93 90 85 78 70 60 51 44 40 39 41 44 48 51 52 52 50 49 50 52 54 54 50 49 54 61 66 72 76
55 55 54 54 55 56 53 48 46 50 51 51 50 52 55 55 56 58 57 59 63 66 65 61 57 57 56 56 57 57 58 63 68 69 69 69 71 73 75 76 76 75 73 74 76 77 80 82 83 84 87 90 94 97 98 97 94 90 84 76 67 58 50 45 42 41 42 44 47 49 50 52 52 50 51 52 53 55 54 51 52 57 62 68 74
55 54 54 53 52 49 45 46 52 56 56 55 55 57 60 58 56 57 58 62 65 65 63 61 60 59 58 59 60 60 62 66 70 71 69 71 74 77 79 79 79 78 77 78 81 84 86 87 87 89 93 96 99 101 101 98 94 89 82 72 62 56 52 48 45 44 44 44 47 48 49 52 53 52 52 53 53 55 55 54 54 55 59 64 71
56 54 52 47 43 45 47 50 54 57 58 58 58 60 61 58 56 58 60 61 61 60 60 60 60 60 62 63 63 62 64 68 72 72 72 75 78 80 81 81 81 81 81 83 86 89 91 91 93 96 99 102 104 105 102 98 92 85 78 68 61 57 54 51 48 46 46 46 47 48 49 51 53 53 53 53 54 55 56 56 57 56 57 61 67
56 54 51 43 40 44 49 53 55 56 59 61 60 60 59 57 58 59 57 55 57 59 61 61 59 60 63 64 63 63 65 70 73 74 76 79 81 81 82 82 82 83 84 86 91 94 96 97 99 101 103 105 106 105 102 96 88 81 74 67 63 61 59 55 52 49 48 47 48 49 50 50 52 54 54 53 54 56 57 58 59 59 58 59 64
55 55 52 47 42 41 47 53 55 56 59 59 57 57 56 56 56 55 53 54 57 60 62 63 62 62 62 61 61 64 68 72 75 77 79 81 82 82 82 82 82 83 85 89 95 98 100 102 103 105 106 106 106 103 97 90 83 77 73 69 68 67 64 59 55 53 51 48 48 50 50 49 51 54 54 54 54 56 57 59 60 60 60 59 62
55 55 53 49 43 39 42 47 49 52 53 52 54 57 58 56 55 53 52 53 56 59 64 66 65 64 63 63 64 68 72 75 77 79 81 82 82 82 82 82 82 83 87 93 98 101 103 104 105 107 107 106 103 96 88 81 77 74 72 72 72 71 67 62 58 56 53 50 48 50 50 49 50 53 54 54 54 55 56 59 61 61 61 62 64
55 54 52 48 43 40 43 49 51 52 52 53 57 60 59 58 56 53 53 55 59 65 68 70 69 67 67 67 69 72 75 77 79 80 81 82 82 83 83 83 82 84 91 99 102 103 104 105 105 107 107 104 96 87 79 74 72 72 73 73 73 71 68 62 59 57 54 51 49 49 50 49 48 51 54 54 54 55 56 58 60 61 62 64 66
56 55 53 49 43 41 46 52 55 58 59 61 62 61 61 63 60 56 56 59 64 68 70 71 70 70 69 70 73 77 79 79 79 80 81 83 84 85 85 84 84 89 97 103 104 104 104 105 106 106 104 97 88 81 76 74 73 74 74 74 73 71 67 62 59 57 55 51 49 47 48 49 48 49 51 53 53 54 55 57 59 60 62 65 67
59 58 56 52 47 44 47 52 55 58 62 65 66 67 67 66 63 60 60 62 64 66 68 69 71 71 72 74 77 79 80 79 80 81 84 85 86 86 86 86 88 94 101 104 103 103 106 107 106 102 96 88 83 82 80 79 78 77 76 75 73 70 66 61 57 56 55 52 48 46 46 47 48 48 49 50 51 52 53 55 57 57 59 63 67
62 61 59 56 52 47 49 54 56 57 61 66 68 67 63 61 62 62 62 63 65 67 69 72 74 75 76 78 79 79 80 81 82 84 85 86 86 87 87 89 93 99 102 101 101 104 107 106 102 97 91 86 86 88 86 84 82 80 78 76 73 69 64 59 55 53 53 51 47 44 44 44 46 48 47 47 48 49 51 53 54 54 56 60 64
63 63 62 60 56 51 50 54 57 58 59 59 60 60 59 59 60 61 63 66 69 72 73 76 77 79 80 80 80 80 81 83 84 84 85 87 88 90 91 94 97 99 99 99 100 103 104 102 99 95 90 88 89 90 88 85 84 82 79 77 73 69 64 59 55 52 50 48 45 42 42 42 44 46 47 45 44 45 48 51 52 51 52 56 61
64 64 63 62 60 56 53 55 59 60 61 62 61 61 62 62 63 66 69 72 74 75 77 79 82 84 84 83 82 82 82 83 84 85 87 90 93 93 94 95 95 95 96 98 99 99 98 97 96 92 89 89 91 90 87 85 84 82 79 76 73 70 65 60 56 53 49 45 42 40 39 39 41 44 45 44 42 42 44 47 49 49 50 53 58
66 64 64 62 61 61 61 61 61 62 66 68 63 55 56 62 68 72 73 74 76 79 81 83 85 85 84 82 81 81 82 83 86 89 92 94 93 92 92 92 92 94 96 97 96 95 94 95 92 89 88 90 90 88 86 85 84 82 79 76 73 70 66 61 57 52 48 43 40 37 36 36 39 41 43 42 40 40 41 42 45 46 47 50 55
67 65 64 63 63 63 63 64 64 63 64 67 65 61 64 70 74 75 74 75 77 80 81 81 81 80 79 79 80 82 84 86 90 92 93 92 90 89 90 91 93 96 98 97 96 94 94 94 91 88 89 90 88 86 86 85 83 81 78 74 72 68 64 60 56 51 46 42 39 36 34 34 36 38 39 40 38 38 38 38 41 44 44 47 52
67 66 65 64 63 63 62 64 65 62 59 62 66 69 71 73 73 72 73 74 75 76 76 77 77 77 79 81 83 85 87 89 90 91 90 89 89 89 91 93 97 99 99 98 97 95 93 91 88 88 89 89 88 86 85 83 80 78 75 72 68 64 60 57 53 49 45 40 37 35 33 32 34 35 36 36 36 35 36 36 38 41 41 44 50
66 65 64 63 63 63 64 64 64 61 59 61 65 67 68 70 70 70 72 73 75 76 77 78 80 81 82 83 84 85 86 87 87 87 87 89 90 92 94 97 100 101 100 98 96 92 88 85 85 87 89 89 88 86 83 80 77 74 71 68 64 59 56 53 50 47 43 39 35 33 31 30 31 32 33 33 33 33 34 36 37 38 38 41 47
64 63 63 64 63 63 62 61 61 61 62 64 65 66 68 70 71 72 75 77 79 82 83 84 83 82 81 82 83 84 85 85 85 86 88 91 93 96 98 101 104 103 99 94 89 86 84 84 85 86 88 88 87 85 82 79 76 72 68 64 59 55 52 50 47 44 40 37 33 31 30 29 29 29 30 31 31 31 33 35 35 34 34 37 42
64 64 64 63 62 61 60 61 62 64 65 66 67 68 70 72 74 77 79 82 85 88 88 84 79 78 80 82 83 84 84 85 86 89 91 94 96 99 102 105 104 99 93 88 85 84 84 85 86 87 88 88 86 84 82 79 75 69 64 60 55 52 49 46 43 41 37 34 31 29 28 27 27 27 28 29 29 30 32 33 32 31 32 35 38
66 66 65 63 62 62 63 64 65 66 67 68 69 71 73 74 77 80 83 85 87 86 81 76 76 81 84 84 85 86 87 88 90 92 94 96 99 103 105 104 98 92 87 85 85 85 86 86 87 88 88 87 86 84 82 79 73 66 60 56 52 49 46 43 40 38 34 31 30 28 26 26 25 25 26 27 28 29 31 31 30 29 30 32 35
69 68 66 64 64 64 65 66 68 69 70 71 73 75 76 78 80 83 84 84 84 81 78 79 84 88 88 87 87 89 90 92 93 94 96 100 103 105 102 96 90 88 87 87 87 88 88 89 90 89 88 87 85 83 81 77 69 62 57 53 49 45 43 40 37 35 32 29 28 26 25 24 24 24 25 26 27 29 29 28 28 28 28 30 32
69 67 66 66 66 67 69 70 70 71 73 75 77 77 79 80 82 84 85 84 83 82 83 86 91 91 90 89 90 91 93 94 95 98 101 104 103 98 93 89 88 89 89 89 90 90 91 91 90 89 88 86 84 82 79 73 65 58 54 50 46 42 40 37 35 32 30 28 26 25 24 23 23 23 24 26 27 27 27 26 26 26 27 28 29
70 68 68 67 68 69 71 72 74 76 78 78 78 79 81 85 88 90 91 90 87 87 89 92 93 93 91 91 91 92 95 97 100 103 103 100 95 90 88 88 89 90 91 91 92 92 92 92 90 88 86 84 83 81 76 68 61 55 51 47 43 40 37 35 33 30 28 26 25 24 23 23 23 23 24 26 26 25 25 25 24 25 27 27 27
72 71 69 68 70 73 75 75 76 76 75 75 77 81 86 90 93 94 93 92 91 91 93 94 94 93 92 92 93 95 99 102 103 101 96 91 88 88 89 90 91 92 93 93 93 94 93 92 90 87 85 83 81 77 71 63 57 53 48 43 40 37 35 33 31 29 27 25 24 24 23 22 23 24 25 25 25 23 24 24 24 25 26 26 25
73 72 72 73 74 73 71 69 68 68 71 74 79 84 88 93 96 95 93 92 93 93 94 94 93 93 93 94 96 99 100 99 96 92 89 88 89 90 90 91 92 93 94 94 94 95 94 92 90 86 83 80 78 73 66 59 53 49 44 40 37 34 32 32 31 28 26 25 24 24 23 23 24 24 25 24 23 23 24 24 23 24 25 24 23
76 73 71 71 71 69 67 67 70 74 79 83 86 89 93 97 99 98 96 94 93 92 92 92 92 93 94 96 98 97 94 91 89 89 89 90 90 91 91 92 93 94 95 96 95 94 93 91 88 84 81 77 72 66 60 54 49 44 41 37 35 32 31 31 30 28 26 25 25 24 23 24 25 25 25 24 23 23 23 23 21 22 23 22 21
77 73 68 68 72 75 77 80 82 84 86 88 91 95 98 101 102 100 97 93 91 90 91 92 93 95 97 96 94 90 88 89 90 90 91 91 92 92 93 94 95 96 96 95 94 92 91 88 85 81 77 72 65 60 55 51 46 41 38 35 33 31 30 30 30 28 27 26 25 24 24 26 27 26 25 24 23 23 22 21 20 21 22 21 19
79 76 74 76 80 83 85 86 87 88 91 94 97 100 102 103 102 98 94 92 91 92 94 95 96 96 94 90 88 88 89 91 92 92 92 93 93 94 95 95 95 95 95 93 92 90 88 84 81 77 71 65 60 56 52 47 42 38 35 33 31 30 30 30 30 29 27 26 26 25 26 28 28 27 26 25 23 22 21 20 19 20 21 19 19
82 81 82 83 84 86 88 90 92 94 97 98 100 102 104 103 99 95 92 92 94 95 95 94 93 90 88 88 89 90 91 92 93 94 94 95 95 95 95 95 94 94 92 91 89 87 84 80 75 70 65 60 55 51 48 44 40 36 33 32 30 29 29 30 30 29 28 27 26 26 28 30 30 29 27 25 23 21 21 20 19 20 20 19 19
85 86 86 87 88 91 93 96 98 99 100 101 103 103 102 99 96 94 93 94 93 92 91 89 87 88 89 89 90 92 93 95 96 96 96 96 96 95 94 93 92 91 90 88 86 82 78 74 69 64 59 55 51 48 45 42 38 34 32 31 30 29 29 30 30 30 29 27 27 28 31 32 31 30 29 26 23 22 22 21 19 20 21 19 20
88 89 90 92 95 97 99 100 101 102 102 102 101 99 97 95 95 94 93 92 90 88 86 86 87 89 90 91 93 94 96 96 96 96 96 95 94 93 92 91 90 88 86 84 80 76 71 67 63 59 55 51 48 45 42 39 36 33 31 29 29 28 28 29 30 31 30 28 28 31 34 34 33 32 29 27 25 24 24 22 19 20 20 19 20
93 94 96 97 99 100 101 102 102 101 100 99 97 96 95 95 94 92 90 88 87 87 88 89 90 91 93 94 96 96 97 97 96 96 95 93 92 91 90 88 86 84 80 77 73 68 64 60 57 53 50 47 44 42 39 37 34 32 29 28 28 28 28 28 30 31 31 29 30 34 37 37 35 33 31 28 27 26 25 23 21 20 20 19 20
97 98 99 100 101 102 102 101 99 97 96 95 94 93 92 90 88 87 87 88 89 90 91 92 93 95 96 96 96 96 97 96 95 94 93 91 90 88 85 82 79 75 71 68 64 61 58 55 51 48 45 42 40 38 37 35 33 30 28 27 26 26 27 28 29 31 32 31 32 36 40 39 37 36 33 31 29 28 27 26 23 21 20 20 21
97 99 101 102 103 102 100 97 95 94 93 92 91 88 86 85 85 86 88 90 91 92 94 95 96 97 96 96 96 96 96 95 94 92 90 87 84 81 77 73 69 65 62 59 57 54 52 50 47 44 41 38 37 36 35 33 31 30 28 26 25 25 26 27 29 31 32 32 33 38 42 42 40 38 36 33 31 30 29 28 26 24 22 21 21
99 101 102 102 100 98 96 94 93 91 89 87 85 84 84 86 87 89 91 92 94 95 96 97 97 97 96 95 95 94 93 92 91 88 84 80 76 72 68 64 61 57 55 53 50 48 47 45 43 40 37 36 35 34 33 32 30 29 27 26 25 25 26 27 28 30 32 33 34 39 44 45 43 41 39 36 33 32 32 31 29 26 25 23 22
101 101 100 98 95 93 91 90 88 86 85 85 85 86 88 89 91 92 94 95 96 97 97 97 97 96 95 94 93 92 90 88 84 81 77 73 69 65 61 58 54 52 49 47 45 43 42 41 39 38 36 35 33 32 32 30 29 28 27 26 25 25 25 26 27 28 31 32 35 39 45 47 46 43 42 40 36 34 33 33 31 29 28 26 24
98 96 94 91 89 87 85 85 85 85 86 87 89 90 91 92 94 95 96 97 97 97 97 96 95 94 93 91 90 87 84 81 77 73 69 65 62 59 57 54 50 48 46 43 41 39 38 37 36 36 35 34 33 32 30 29 28 27 26 26 26 25 26 26 26 27 29 32 35 40 46 50 49 46 44 43 40 37 35 35 34 32 30 29 27
89 88 86 84 83 84 85 86 87 88 89 90 92 93 95 95 96 97 97 97 96 96 95 94 92 91 89 87 84 81 77 73 68 65 62 60 58 56 53 51 47 45 42 40 38 36 35 34 34 34 34 33 32 31 30 28 27 26 25 25 26 26 26 26 27 27 29 31 35 40 46 51 51 49 47 46 44 41 38 38 37 35 33 32 31
82 84 84 84 85 87 88 89 90 91 92 93 95 96 96 96 96 97 96 95 94 93 92 90 89 87 84 81 77 73 69 65 62 60 58 56 55 53 50 47 44 40 38 37 35 34 33 32 32 32 32 31 31 30 29 27 26 25 25 24 25 26 26 27 27 28 29 32 35 39 46 52 54 52 50 48 47 45 42 40 40 39 36 35 34
82 85 88 89 90 91 91 92 93 94 94 95 95 96 96 95 95 94 93 92 91 89 88 86 83 80 77 74 70 66 63 60 58 57 55 53 51 49 47 43 40 37 35 34 33 33 32 31 31 31 30 30 29 28 27 26 25 25 24 23 24 25 26 27 27 28 30 32 35 39 45 51 56 55 53 51 50 48 45 43 43 42 40 38 37
86 88 90 92 94 94 95 95 96 96 96 95 95 94 93 91 90 90 89 87 85 83 81 79 76 73 70 66 63 61 59 56 54 53 51 49 47 45 42 40 37 34 32 32 32 32 32 31 29 29 29 28 27 26 26 25 24 23 23 22 22 23 24 26 27 28 29 32 35 38 43 50 55 58 56 53 52 51 49 47 46 45 44 41 40
90 91 93 95 96 97 97 97 97 96 94 92 90 89 88 86 85 83 81 79 77 75 73 71 69 66 63 61 59 57 55 52 50 48 47 45 43 41 39 37 35 33 32 32 32 32 31 30 29 28 27 27 26 25 24 24 23 21 21 21 21 21 23 24 26 27 29 31 34 37 41 47 54 59 59 57 55 54 52 50 48 48 47 45 43
93 94 96 97 97 97 97 95 94 92 89 87 85 83 81 79 76 74 72 70 69 68 66 64 62 60 58 56 54 53 51 48 46 45 43 41 39 38 36 35 34 33 32 32 32 32 31 30 28 27 27 26 26 25 24 23 22 21 20 19 19 20 21 22 23 26 28 30 32 36 39 44 50 57 61 61 58 56 55 53 51 51 50 48 46
94 95 95 95 94 93 91 90 88 86 84 81 78 75 72 69 67 66 65 64 63 61 60 59 58 56 54 51 49 47 45 44 43 42 40 39 37 36 34 33 32 32 31 32 32 32 31 29 28 27 27 26 26 25 24 23 22 21 20 19 18 19 19 20 21 22 25 27 30 33 37 40 46 53 60 63 61 59 57 56 55 53 52 52 49
91 90 90 88 87 86 85 83 81 78 75 72 69 67 64 63 61 60 59 58 57 56 56 55 54 52 49 47 44 42 41 40 40 39 39 39 37 36 34 32 31 30 30 31 32 32 30 29 28 27 27 27 26 25 24 23 22 20 19 19 19 19 19 20 19 20 21 24 26 29 33 37 41 48 56 62 64 62 60 59 58 56 55 54 53
Wind_Direction
306 308 310 312 312 313 314 315 316 315 314 313 313 314 313 311 310 311 312 314 316 316 316 319 320 320 319 318 318 317 316 314 314 318 323 324 324 324 323 321 320 322 323 324 325 325 325 326 328 329 330 332 333 333 332 332 331 330 329 330 331 325 304 284 278 278 280 281 280 279 279 276 269 260 253 248 244 242 241 239 236 232 230 230 228
306 308 310 311 312 313 314 314 315 314 313 312 312 312 311 309 309 310 311 313 315 316 318 321 322 321 319 318 317 316 315 314 315 318 321 322 322 323 323 321 321 322 324 325 324 322 323 324 325 326 328 330 331 331 330 330 329 328 327 328 328 325 312 290 280 279 280 280 278 276 275 275 272 267 258 251 246 243 241 240 238 235 231 230 229
307 308 309 310 312 312 313 313 313 312 312 311 311 311 310 309 308 309 310 313 315 317 321 324 323 320 318 316 314 314 315 314 315 317 318 319 320 322 321 320 321 322 325 326 325 322 321 322 323 324 326 328 329 329 328 328 328 326 325 326 326 324 315 295 282 280 281 281 279 276 273 271 270 269 264 256 249 244 241 239 238 237 234 230 229
306 307 308 310 311 312 312 312 312 312 311 310 310 309 308 308 307 308 311 314 315 318 323 326 324 320 317 314 312 312 313 314 314 315 316 317 318 319 319 318 319 322 325 327 326 323 322 321 322 323 325 327 328 327 327 326 326 325 324 324 324 322 315 299 284 281 281 281 280 277 273 269 266 266 265 261 255 247 242 240 238 237 236 232 230
304 306 308 309 311 313 313 313 313 312 310 309 309 309 310 310 309 310 314 316 316 318 322 324 323 320 315 312 309 310 312 312 312 313 314 315 316 317 317 317 318 321 325 327 326 324 323 322 322 323 325 326 326 326 325 325 325 324 323 322 322 320 315 302 286 282 283 282 280 277 274 270 265 262 261 260 258 252 244 240 238 236 236 235 232
303 305 307 310 313 315 315 315 313 312 310 308 310 314 314 311 310 310 312 313 313 316 320 321 320 318 313 309 308 309 311 312 312 312 312 313 314 316 316 316 317 321 324 326 325 324 322 321 322 323 325 325 325 325 324 324 323 322 322 321 321 319 314 303 289 283 282 281 278 276 273 270 266 262 257 255 257 256 248 241 238 236 235 235 234
302 305 308 312 314 317 318 315 309 306 307 306 306 309 308 306 308 308 309 309 309 313 318 320 319 317 312 309 308 307 309 312 313 312 312 312 313 315 316 316 316 319 322 324 324 322 321 322 322 323 324 323 324 324 323 323 322 321 321 320 320 318 312 303 291 284 282 281 277 273 272 269 265 262 257 253 254 255 252 243 238 236 235 234 235
302 305 309 312 316 318 319 313 301 296 299 300 299 301 303 304 307 308 307 306 306 312 317 318 317 315 313 310 308 304 305 309 312 312 310 310 312 315 316 316 316 317 320 321 321 321 321 322 322 322 322 322 323 323 322 321 321 320 320 320 319 317 311 303 294 287 284 282 277 272 270 268 265 261 258 254 251 252 252 247 241 236 234 234 234
301 305 309 315 317 314 308 301 294 291 293 296 296 298 302 305 306 306 304 304 307 313 316 314 311 311 311 310 307 303 302 305 309 309 309 310 313 315 316 315 314 314 315 317 318 319 321 321 321 321 321 321 322 321 321 320 319 319 320 319 317 315 311 304 296 291 287 283 278 272 269 267 264 261 258 254 251 249 250 249 244 238 234 233 234
301 304 308 312 308 299 293 290 288 287 290 295 297 299 301 302 302 303 302 303 307 310 311 310 307 306 306 306 305 302 302 304 307 308 309 311 313 316 315 313 312 312 312 314 316 318 319 320 319 319 319 319 320 320 319 318 318 318 319 318 315 313 310 305 298 293 290 286 279 273 268 266 264 261 258 255 251 248 247 247 245 242 236 233 233
299 301 303 302 296 291 288 285 285 286 289 295 298 299 299 298 300 303 302 301 302 303 305 306 304 302 302 303 303 302 302 304 307 309 310 312 314 315 313 312 311 310 311 313 315 316 317 317 317 316 317 317 318 318 318 317 316 317 317 316 313 312 310 305 300 296 292 287 281 274 268 265 264 261 258 255 252 248 246 246 244 243 240 235 233
297 296 297 297 295 294 290 288 289 289 291 295 296 295 295 296 300 303 300 297 299 300 302 303 301 300 300 300 300 300 302 305 307 309 310 312 313 313 312 311 310 310 310 312 313 314 314 314 314 314 314 315 317 318 317 316 315 315 315 314 312 311 309 306 303 299 294 289 282 275 269 265 264 262 258 255 252 249 246 244 243 242 241 238 234
293 293 293 293 294 292 286 283 285 286 287 287 287 289 292 293 297 299 295 295 299 300 300 299 298 297 296 296 297 298 301 304 306 308 310 311 311 311 310 310 310 309 310 311 312 312 312 312 312 312 313 315 317 317 317 316 315 314 314 312 311 309 307 305 303 301 296 291 284 276 270 266 264 262 259 256 253 250 246 243 242 241 240 239 236
291 291 291 291 290 287 278 271 272 276 280 281 284 289 290 288 291 294 293 295 298 297 296 296 295 294 294 294 296 298 301 304 305 307 308 309 310 310 309 309 309 308 308 310 311 311 311 312 312 312 313 315 316 316 317 317 315 314 312 311 309 307 306 305 303 300 297 292 285 278 272 268 264 261 260 257 253 250 247 243 241 240 238 238 237
291 291 291 290 289 285 278 272 270 272 277 283 288 290 289 287 287 288 289 292 293 292 291 291 292 292 292 293 295 297 301 303 304 305 306 308 309 309 308 308 306 305 307 310 311 311 312 312 311 312 313 313 314 315 317 318 316 314 312 310 308 306 305 304 302 299 296 291 285 280 275 270 266 262 259 257 255 251 248 244 241 239 237 236 237
292 292 291 290 288 282 275 273 272 272 275 281 286 287 287 286 284 283 284 287 287 286 287 288 291 292 291 292 294 297 299 300 301 303 305 307 308 308 307 305 304 304 307 309 310 311 312 311 311 312 313 314 315 318 319 319 317 315 313 311 308 307 305 303 301 298 294 291 286 280 276 272 268 264 259 256 255 252 249 246 242 239 236 235 236
291 291 291 289 287 283 277 274 273 273 275 279 282 282 282 284 284 284 284 284 285 285 286 288 291 292 293 293 294 295 297 298 300 302 304 305 307 307 305 303 302 304 306 308 310 311 311 310 312 314 315 316 319 320 320 318 317 315 313 311 309 307 305 303 300 296 292 290 287 281 276 272 269 266 261 256 253 251 249 247 244 240 237 235 235
290 291 290 289 287 285 281 278 275 274 273 273 273 274 276 280 284 285 284 284 285 286 286 288 291 292 293 294 294 295 297 298 300 302 304 305 305 304 303 302 302 304 306 308 311 311 310 311 314 316 316 317 318 318 318 317 316 315 313 312 310 308 306 304 301 296 292 289 287 282 277 273 269 266 263 259 254 250 247 247 244 241 238 236 234
290 289 289 288 286 284 280 277 275 274 272 269 269 272 273 275 280 284 284 284 286 287 288 289 291 292 294 295 296 298 299 300 301 302 302 303 303 303 303 303 303 305 308 310 311 311 311 312 314 315 314 315 315 316 316 316 316 314 313 311 310 308 307 305 302 297 293 290 286 281 277 273 269 267 264 261 255 250 246 246 244 241 238 237 235
288 288 287 285 284 283 281 278 276 274 272 272 272 270 270 273 280 284 285 285 287 288 289 290 292 293 295 296 298 299 300 301 301 301 301 302 303 303 304 304 305 307 309 311 311 311 311 311 312 312 312 313 314 315 316 316 315 314 312 311 309 308 307 305 302 298 294 291 287 281 275 271 268 266 265 262 257 252 247 245 244 241 237 236 235
287 286 285 284 283 283 282 280 278 276 274 273 272 269 271 276 281 283 284 286 287 287 288 291 293 295 297 298 300 301 301 301 300 300 301 301 302 303 304 305 307 309 311 312 312 311 311 311 311 311 311 313 314 315 316 316 314 312 310 309 308 307 306 304 300 298 295 292 288 282 275 269 265 263 263 261 258 254 250 246 243 240 236 234 235
286 285 284 284 283 282 281 280 280 278 276 276 276 275 277 280 282 284 286 288 290 291 293 296 298 299 300 300 300 300 300 300 300 300 301 301 302 304 306 307 309 310 312 312 311 310 310 310 310 310 311 313 314 315 315 314 312 310 309 308 307 306 304 301 298 297 295 292 288 282 276 269 264 261 260 259 257 255 252 247 243 240 235 232 233
285 285 285 284 283 283 282 281 281 279 278 279 280 280 281 283 286 289 292 294 296 299 301 302 302 301 300 299 299 300 300 300 301 301 302 303 305 306 307 308 310 311 311 310 310 309 309 309 309 310 311 313 314 315 314 313 312 310 309 308 306 304 302 299 297 296 294 291 287 281 275 269 264 261 260 258 256 253 251 248 244 240 235 230 230
285 286 285 284 284 283 282 281 282 283 283 285 286 287 289 291 294 297 298 300 301 302 302 302 301 300 299 299 300 300 301 301 302 303 304 306 306 307 308 309 310 310 310 309 308 308 308 309 310 311 312 314 314 315 314 313 312 312 310 308 306 303 300 298 296 294 292 289 284 278 274 269 264 261 259 257 255 252 250 248 244 240 235 231 229
286 286 285 284 283 282 283 285 288 290 292 294 295 295 297 298 299 300 300 300 301 301 301 301 300 300 300 299 300 301 303 304 305 306 306 306 306 307 308 309 309 309 308 308 307 308 309 310 311 312 313 314 315 315 315 314 313 313 310 308 305 302 299 297 294 292 290 287 282 277 272 268 264 260 257 255 252 250 248 246 244 240 237 233 230
288 288 288 288 288 289 291 293 295 296 298 298 298 298 298 298 298 297 297 298 299 300 300 299 299 301 302 302 303 305 306 306 306 306 306 305 306 306 307 308 308 307 307 307 307 309 310 311 312 313 314 315 315 316 315 314 314 313 310 306 304 301 298 295 293 290 288 284 280 276 271 267 263 258 253 249 246 245 245 246 244 241 238 236 233
294 295 296 296 296 296 296 296 297 297 297 297 296 297 296 296 295 295 296 298 299 298 297 298 301 304 306 306 306 306 306 306 305 305 305 305 305 306 306 306 306 306 307 308 309 310 311 312 313 313 314 315 315 315 315 314 313 311 308 305 302 299 296 293 291 288 286 282 278 273 269 264 259 252 246 242 240 241 243 244 244 242 240 238 235
298 299 299 298 298 297 297 296 296 295 294 294 294 294 295 295 296 298 300 301 301 299 298 301 304 306 306 305 305 305 305 305 304 304 304 304 305 305 305 305 306 306 308 309 309 310 311 312 312 313 314 314 315 314 314 313 311 309 307 303 300 297 294 291 288 286 283 280 275 270 266 260 253 245 239 236 236 239 241 242 244 245 243 239 236
298 297 297 296 295 295 294 294 294 293 292 292 294 296 298 301 303 304 304 303 301 300 301 302 303 304 304 304 304 304 304 303 303 303 304 304 304 304 304 305 306 307 308 308 309 309 310 311 312 313 313 314 314 313 313 311 310 307 304 301 298 295 291 288 286 283 281 277 272 267 262 255 245 236 231 230 231 236 240 241 243 246 246 242 236
294 294 294 293 292 292 292 292 292 292 291 294 297 300 302 304 305 304 302 301 299 299 299 300 301 303 303 303 303 303 303 302 302 302 302 303 303 304 305 306 306 307 307 308 308 309 310 311 311 312 313 313 313 312 311 309 308 305 302 299 296 293 290 286 283 280 278 274 269 264 257 247 236 228 225 225 227 234 240 241 243 246 248 246 239
291 292 293 294 293 292 291 290 290 290 291 294 297 297 299 301 302 301 300 298 298 297 298 300 301 302 302 301 301 302 302 302 301 301 302 303 304 304 305 305 305 306 306 307 308 309 309 310 311 311 312 312 311 310 308 307 306 303 300 297 294 291 288 284 281 278 274 269 265 260 251 238 227 222 220 221 225 232 239 242 245 248 250 248 242
292 293 295 295 293 291 289 288 288 289 290 292 293 294 296 299 300 300 298 298 298 298 299 301 301 300 300 300 300 301 301 301 301 301 303 303 304 304 305 305 305 305 306 307 308 308 308 309 310 311 311 311 309 308 306 305 304 300 297 294 291 288 284 280 277 275 271 265 261 254 242 229 220 217 216 218 223 232 239 243 246 250 251 248 242
290 291 290 288 287 287 288 288 289 289 289 291 292 294 296 298 299 299 298 299 299 299 300 300 300 299 300 300 300 301 301 301 301 302 303 304 304 304 304 304 305 305 306 306 307 307 308 309 309 310 310 309 307 306 304 303 301 297 293 291 288 284 280 276 273 271 267 261 256 247 234 222 215 213 213 216 221 230 239 243 245 249 251 248 239
288 287 287 286 287 288 289 289 289 290 291 292 293 295 296 298 298 298 298 298 298 298 299 299 299 300 300 300 300 301 301 301 301 302 303 303 303 303 304 304 304 305 305 306 306 307 308 308 309 308 308 307 305 304 302 301 298 294 290 287 284 280 276 272 269 266 262 257 250 239 226 217 213 210 211 214 219 228 237 241 243 247 248 244 232
289 289 289 289 289 289 289 290 290 291 292 293 294 295 296 297 297 297 297 297 297 298 299 299 300 300 300 300 300 300 300 300 301 302 302 302 303 303 304 304 305 305 305 306 306 306 307 307 307 307 306 305 304 303 301 299 296 292 288 284 281 276 272 268 265 262 257 252 244 232 219 213 211 209 210 212 217 225 234 238 240 244 246 239 225
290 290 290 290 289 289 289 290 291 292 292 293 294 294 295 296 296 296 297 297 298 299 299 299 299 299 299 299 299 300 300 300 301 301 302 302 303 304 304 304 304 305 305 305 305 306 306 306 306 305 305 304 303 301 299 297 294 290 286 282 278 274 269 265 261 258 253 247 238 224 214 211 209 208 209 211 214 222 231 234 236 241 242 234 218
287 288 288 288 288 289 290 291 291 292 293 293 294 294 295 295 296 297 298 298 299 299 298 298 298 298 298 299 299 299 300 300 301 301 302 303 303 304 304 304 304 304 304 304 305 305 305 305 305 304 303 302 301 299 297 295 292 288 283 279 275 272 267 262 258 254 250 243 232 219 211 209 209 208 209 211 213 219 227 230 230 234 236 228 213
284 285 285 286 287 288 290 291 292 292 293 293 294 294 295 296 297 298 298 298 298 297 297 297 298 298 299 299 299 300 300 301 301 302 303 304 304 304 304 303 303 303 303 303 303 304 304 303 302 302 301 301 300 298 296 294 291 286 281 277 273 270 266 260 254 250 246 240 228 216 209 208 208 208 208 210 213 218 225 227 224 224 227 223 210
283 283 285 286 288 290 291 292 292 292 292 293 294 295 296 296 297 297 296 296 296 297 297 298 298 298 299 299 300 301 301 302 302 303 303 304 303 303 303 302 302 302 302 302 302 302 301 301 300 300 300 299 299 297 295 293 289 285 281 275 271 268 264 259 252 246 242 238 227 216 209 207 207 208 208 209 212 217 222 224 220 216 218 219 211
283 284 286 288 290 291 291 291 291 292 292 293 294 295 295 295 295 295 295 295 296 296 297 297 298 299 299 300 301 301 302 302 303 303 303 303 302 302 302 302 301 301 301 300 300 300 299 299 299 299 299 299 299 297 295 293 289 285 281 275 270 266 262 257 250 244 239 235 227 217 210 206 207 208 208 208 211 216 221 222 218 212 212 214 211
284 286 287 289 289 290 290 291 291 292 293 293 293 294 294 294 294 294 294 295 296 296 297 298 298 299 300 300 301 301 302 302 303 303 303 302 302 302 301 301 301 300 300 299 300 300 299 299 299 299 300 300 300 298 295 293 289 285 280 275 269 265 260 255 250 243 237 233 227 218 211 207 206 207 208 208 209 214 220 222 219 213 209 209 208
286 287 288 288 289 289 290 291 291 292 292 292 293 293 293 293 293 294 295 295 296 297 297 298 299 299 300 300 300 301 302 303 303 303 303 303 302 302 301 301 300 300 300 300 300 299 299 299 300 301 301 302 301 298 295 292 288 285 281 275 269 265 260 255 250 243 237 233 227 219 213 208 207 207 208 207 207 211 218 221 220 214 209 205 204
286 286 287 287 288 289 290 290 290 291 291 292 292 292 292 293 294 295 295 295 296 296 297 297 298 298 299 300 301 302 303 303 303 303 303 303 302 302 302 302 302 302 302 301 300 299 299 299 300 301 301 302 301 299 295 291 287 284 280 275 270 265 261 255 250 244 238 232 226 220 214 210 207 207 208 208 207 209 214 219 221 217 210 204 201
285 285 286 287 287 288 288 289 289 290 290 291 291 292 293 294 294 294 295 295 295 296 296 297 297 298 299 300 301 302 303 303 303 302 302 302 302 302 302 302 303 302 302 301 300 299 299 299 299 299 300 300 300 298 295 291 287 283 279 275 270 265 261 257 251 245 239 232 226 220 215 211 208 207 208 209 208 208 210 215 220 219 213 206 200
283 284 286 286 286 287 287 287 288 289 290 291 292 293 293 293 294 294 294 294 295 295 296 297 298 299 300 301 302 302 302 302 302 302 302 301 301 301 301 301 301 301 300 299 299 298 298 298 297 297 297 297 297 297 295 292 288 284 280 275 270 265 261 258 252 247 240 234 227 221 216 212 209 208 209 210 209 209 209 211 216 219 216 209 202
283 284 285 286 286 286 287 288 289 290 291 292 292 292 292 293 293 293 293 294 295 295 296 297 298 299 300 301 302 302 302 302 302 302 301 300 299 299 299 299 299 298 297 297 297 297 296 295 294 294 294 294 295 295 294 293 290 285 281 277 272 266 261 258 253 248 242 236 230 224 219 214 211 209 209 210 211 210 209 210 213 216 217 213 205
283 284 285 286 287 288 289 290 291 291 292 292 292 292 292 292 292 292 293 294 295 295 296 297 298 299 300 301 301 301 302 302 302 301 299 298 298 298 297 297 297 296 296 296 295 294 293 292 292 291 291 291 292 292 292 291 290 287 283 278 273 268 262 257 253 249 244 239 233 227 222 217 213 211 210 211 212 212 211 210 211 213 216 215 209
285 285 286 287 288 289 290 291 291 291 291 291 291 291 291 292 292 293 293 294 294 295 296 298 299 300 301 301 301 301 301 301 300 299 298 298 297 297 296 296 296 296 296 295 293 292 291 291 291 290 290 290 289 289 288 288 288 287 284 280 275 270 264 258 253 249 244 241 237 232 226 221 216 213 211 211 212 213 213 211 211 212 215 216 213
286 287 288 289 289 290 290 290 290 290 291 291 291 292 292 293 293 293 294 294 295 296 297 298 299 300 300 301 301 301 301 300 299 298 298 297 297 296 296 295 295 295 295 293 292 291 291 291 291 290 290 288 287 287 286 286 285 285 283 280 276 272 267 261 255 251 246 242 238 235 231 226 221 216 213 212 212 214 214 213 212 212 214 216 216
286 287 287 287 287 288 288 288 289 290 290 291 292 293 293 293 294 294 295 295 296 297 298 299 299 300 300 300 301 300 300 299 298 298 297 297 296 295 294 293 293 292 291 290 289 289 289 290 290 289 287 286 286 285 284 283 282 281 281 279 276 273 269 264 259 255 251 247 243 239 234 230 225 220 216 214 213 214 215 215 215 214 214 215 217
285 285 285 285 285 286 287 287 288 290 291 292 293 293 293 294 294 294 295 295 296 297 298 299 299 299 300 300 300 299 298 297 297 297 297 297 296 295 294 293 291 290 288 286 285 286 286 287 287 285 284 284 283 282 280 279 278 277 276 275 274 272 270 267 264 260 256 253 249 245 240 235 230 225 221 217 215 214 215 216 217 216 215 215 216
Height
10918 10917 10916 10914 10911 10908 10905 10902 10900 10898 10896 10894 10891 10889 10886 10884 10882 10879 10878 10877 10875 10872 10869 10867 10865 10863 10861 10859 10856 10853 10851 10849 10846 10843 10839 10836 10833 10831 10829 10826 10823 10820 10817 10813 10809 10805 10802 10798 10795 10792 10788 10785 10783 10780 10777 10775 10772 10770 10767 10764 10761 10758 10754 10749 10745 10739 10737 10741 10745 10746 10746 10745 10744 10746 10748 10749 10752 10754 10756 10760 10764 10768 10771 10774 10777
10914 10913 10912 10910 10907 10904 10900 10897 10895 10892 10889 10887 10885 10882 10880 10877 10874 10872 10871 10870 10869 10866 10863 10861 10859 10857 10856 10854 10851 10849 10847 10844 10841 10838 10834 10831 10828 10825 10823 10820 10818 10815 10811 10808 10804 10799 10795 10791 10788 10784 10781 10778 10775 10772 10769 10767 10764 10762 10760 10757 10753 10751 10747 10743 10740 10734 10728 10728 10734 10736 10737 10736 10735 10737 10739 10740 10742 10745 10746 10749 10753 10757 10761 10764 10767
10910 10909 10907 10905 10903 10900 10897 10893 10890 10887 10884 10881 10878 10876 10873 10871 10867 10865 10864 10864 10863 10860 10858 10855 10854 10852 10850 10848 10846 10844 10842 10839 10837 10833 10830 10827 10824 10821 10818 10815 10812 10809 10805 10802 10798 10793 10788 10784 10781 10777 10774 10771 10768 10765 10762 10759 10756 10753 10751 10748 10745 10742 10740 10737 10733 10729 10722 10717 10720 10725 10727 10728 10727 10727 10729 10731 10733 10735 10736 10738 10741 10745 10750 10754 10757
10905 10904 10902 10900 10899 10896 10893 10889 10886 10882 10879 10876 10872 10870 10867 10864 10861 10859 10859 10858 10857 10855 10852 10850 10848 10846 10845 10842 10840 10838 10835 10833 10829 10826 10824 10821 10819 10816 10812 10809 10805 10802 10798 10794 10790 10786 10782 10778 10774 10770 10766 10763 10760 10758 10755 10751 10748 10745 10742 10739 10736 10732 10730 10729 10726 10723 10718 10711 10708 10712 10716 10718 10718 10719 10720 10720 10722 10725 10727 10728 10730 10734 10738 10743 10747
10901 10899 10897 10895 10894 10891 10887 10883 10879 10876 10873 10870 10868 10865 10862 10859 10856 10854 10853 10853 10851 10849 10847 10845 10843 10841 10839 10836 10834 10831 10828 10825 10822 10819 10816 10813 10811 10808 10805 10801 10797 10793 10790 10786 10782 10778 10774 10770 10766 10762 10758 10755 10752 10749 10746 10742 10739 10736 10733 10729 10727 10723 10720 10719 10718 10716 10712 10706 10700 10700 10704 10708 10709 10710 10712 10711 10710 10714 10717 10718 10720 10723 10727 10731 10736
10898 10895 10892 10891 10889 10885 10880 10875 10870 10868 10867 10865 10863 10860 10858 10855 10852 10850 10849 10847 10845 10843 10840 10838 10837 10835 10832 10829 10827 10825 10822 10818 10815 10812 10809 10806 10803 10800 10797 10793 10789 10785 10781 10777 10774 10770 10767 10763 10758 10754 10750 10746 10743 10740 10737 10733 10729 10726 10723 10720 10716 10713 10710 10708 10708 10707 10704 10700 10694 10691 10692 10696 10698 10700 10702 10702 10701 10703 10707 10709 10710 10713 10717 10720 10723
10893 10891 10889 10887 10885 10881 10876 10870 10864 10862 10862 10861 10859 10856 10854 10852 10848 10846 10844 10841 10839 10836 10833 10830 10829 10827 10825 10823 10820 10818 10815 10812 10809 10806 10803 10800 10796 10792 10789 10785 10781 10777 10773 10769 10766 10763 10759 10756 10751 10746 10743 10739 10735 10732 10728 10725 10720 10716 10713 10710 10706 10703 10700 10698 10698 10698 10696 10692 10687 10684 10683 10684 10687 10689 10691 10692 10692 10693 10696 10699 10701 10703 10706 10708 10711
10887 10887 10886 10884 10881 10877 10874 10868 10860 10856 10856 10856 10855 10852 10849 10848 10845 10841 10838 10835 10833 10830 10827 10823 10821 10819 10817 10816 10814 10811 10808 10806 10803 10800 10796 10793 10789 10785 10781 10777 10773 10769 10766 10762 10759 10755 10752 10748 10743 10738 10735 10731 10727 10723 10719 10715 10711 10706 10702 10700 10697 10693 10691 10689 10687 10687 10686 10683 10679 10676 10675 10673 10675 10679 10680 10681 10683 10684 10685 10689 10691 10693 10696 10698 10700
10883 10883 10882 10882 10880 10876 10873 10866 10855 10850 10850 10850 10850 10847 10844 10842 10840 10837 10833 10829 10826 10824 10822 10818 10815 10812 10810 10809 10807 10805 10802 10799 10797 10794 10790 10786 10782 10778 10773 10770 10766 10762 10758 10755 10751 10747 10743 10739 10734 10730 10725 10721 10718 10714 10710 10706 10701 10696 10691 10689 10687 10684 10682 10680 10678 10676 10675 10673 10669 10668 10666 10664 10664 10667 10669 10671 10673 10675 10676 10679 10681 10683 10686 10689 10691
10878 10879 10879 10880 10878 10874 10870 10862 10852 10846 10845 10845 10844 10842 10839 10837 10835 10832 10828 10824 10822 10819 10816 10814 10810 10807 10805 10802 10800 10798 10795 10792 10789 10785 10783 10779 10775 10771 10767 10763 10759 10755 10751 10747 10742 10738 10734 10730 10725 10720 10715 10712 10709 10705 10700 10695 10690 10686 10682 10678 10676 10674 10672 10670 10668 10666 10665 10662 10659 10658 10657 10655 10654 10655 10658 10660 10663 10664 10666 10668 10670 10672 10676 10680 10682
10874 10874 10873 10874 10873 10870 10863 10856 10850 10845 10842 10840 10839 10836 10833 10831 10828 10826 10822 10818 10816 10813 10810 10808 10805 10802 10800 10797 10794 10792 10789 10785 10781 10777 10774 10772 10768 10765 10761 10757 10753 10748 10744 10739 10734 10728 10724 10720 10715 10710 10707 10704 10700 10695 10689 10683 10679 10675 10672 10668 10665 10663 10661 10659 10657 10656 10654 10651 10649 10647 10647 10647 10644 10644 10646 10649 10652 10654 10656 10658 10660 10662 10666 10670 10673
10870 10868 10866 10866 10867 10866 10859 10851 10848 10842 10836 10835 10833 10829 10826 10824 10821 10819 10815 10811 10809 10806 10804 10801 10798 10796 10793 10791 10788 10785 10781 10778 10774 10770 10767 10764 10762 10758 10753 10749 10745 10741 10736 10732 10726 10720 10714 10710 10705 10700 10698 10696 10692 10685 10678 10672 10668 10665 10661 10657 10654 10651 10650 10648 10647 10645 10642 10641 10638 10636 10636 10637 10635 10633 10635 10638 10640 10642 10646 10647 10649 10652 10656 10660 10663
10863 10862 10861 10861 10862 10862 10857 10850 10844 10835 10828 10827 10824 10820 10817 10815 10814 10812 10808 10804 10802 10799 10797 10794 10792 10790 10787 10784 10781 10777 10773 10770 10767 10763 10760 10757 10755 10752 10746 10741 10737 10733 10728 10724 10719 10712 10705 10700 10694 10690 10688 10687 10682 10676 10669 10662 10658 10654 10651 10647 10643 10639 10638 10637 10637 10634 10631 10629 10628 10625 10625 10627 10626 10623 10624 10627 10629 10631 10634 10636 10638 10641 10646 10649 10651
10855 10854 10854 10855 10856 10856 10851 10843 10835 10826 10821 10820 10817 10814 10810 10807 10807 10804 10800 10797 10796 10792 10790 10789 10786 10784 10781 10777 10774 10769 10766 10763 10759 10756 10753 10750 10747 10744 10739 10735 10730 10725 10720 10715 10709 10702 10695 10689 10685 10681 10678 10676 10672 10667 10661 10655 10649 10644 10640 10636 10631 10627 10626 10626 10626 10623 10620 10618 10617 10615 10614 10616 10616 10614 10613 10615 10618 10620 10622 10625 10626 10631 10635 10638 10640
10847 10846 10847 10848 10850 10850 10844 10835 10828 10822 10817 10814 10810 10807 10803 10800 10799 10796 10792 10791 10789 10786 10785 10783 10780 10777 10774 10771 10767 10762 10758 10755 10752 10749 10746 10742 10739 10735 10731 10728 10724 10718 10712 10706 10699 10691 10683 10678 10675 10673 10669 10665 10661 10657 10652 10646 10640 10634 10629 10624 10620 10616 10614 10615 10614 10611 10609 10607 10606 10605 10604 10603 10604 10605 10604 10604 10606 10608 10611 10612 10615 10620 10624 10626 10629
10837 10837 10838 10840 10841 10841 10835 10827 10823 10819 10813 10808 10803 10799 10796 10793 10790 10787 10786 10785 10782 10780 10778 10775 10772 10769 10767 10764 10761 10756 10751 10748 10745 10742 10739 10735 10732 10728 10724 10720 10716 10711 10704 10698 10690 10682 10673 10667 10665 10663 10658 10653 10648 10643 10639 10634 10629 10624 10619 10613 10609 10605 10603 10603 10603 10600 10597 10596 10596 10595 10594 10592 10592 10593 10594 10595 10596 10597 10599 10600 10604 10610 10613 10615 10618
10829 10828 10829 10830 10831 10832 10828 10820 10816 10814 10807 10800 10795 10791 10789 10787 10783 10780 10779 10777 10775 10772 10769 10767 10764 10761 10758 10756 10753 10749 10744 10740 10738 10735 10731 10728 10725 10722 10717 10713 10708 10703 10697 10690 10682 10672 10661 10656 10655 10651 10645 10641 10635 10629 10626 10623 10618 10614 10609 10603 10599 10595 10592 10592 10591 10589 10587 10585 10585 10585 10584 10582 10581 10580 10582 10585 10587 10588 10588 10589 10593 10599 10602 10605 10607
10821 10820 10819 10819 10820 10823 10821 10813 10807 10805 10800 10792 10788 10786 10784 10781 10777 10775 10772 10769 10766 10763 10760 10758 10755 10752 10750 10747 10743 10740 10737 10733 10730 10727 10723 10720 10718 10715 10710 10705 10699 10694 10688 10682 10675 10665 10652 10644 10644 10640 10634 10630 10626 10620 10617 10613 10608 10603 10598 10593 10589 10584 10581 10581 10580 10578 10577 10576 10575 10574 10573 10572 10571 10569 10570 10574 10576 10578 10578 10579 10582 10588 10591 10593 10595
10814 10812 10810 10808 10808 10809 10809 10804 10799 10796 10791 10786 10783 10781 10777 10774 10771 10768 10764 10760 10757 10754 10751 10749 10747 10745 10743 10740 10736 10733 10729 10725 10721 10718 10715 10712 10709 10706 10700 10694 10689 10684 10679 10673 10667 10659 10648 10640 10637 10633 10628 10623 10618 10613 10608 10603 10598 10592 10587 10583 10579 10574 10571 10570 10568 10566 10566 10566 10566 10565 10563 10562 10561 10559 10560 10562 10565 10568 10569 10570 10573 10577 10580 10582 10584
10805 10804 10801 10799 10797 10797 10796 10794 10791 10788 10784 10781 10780 10776 10770 10767 10764 10760 10755 10752 10748 10745 10743 10742 10739 10736 10734 10732 10729 10725 10722 10717 10713 10709 10706 10703 10700 10697 10691 10683 10678 10674 10670 10665 10659 10651 10642 10635 10631 10627 10622 10617 10612 10606 10600 10594 10588 10583 10578 10574 10570 10564 10561 10559 10557 10556 10555 10555 10555 10555 10555 10554 10552 10551 10550 10551 10554 10557 10559 10562 10564 10566 10570 10571 10573
10796 10794 10792 10790 10788 10787 10785 10782 10780 10779 10776 10774 10774 10770 10764 10760 10757 10752 10748 10745 10741 10738 10737 10735 10732 10728 10725 10723 10720 10716 10712 10709 10704 10699 10696 10693 10690 10687 10681 10673 10668 10664 10660 10655 10650 10643 10635 10628 10623 10619 10614 10609 10604 10599 10593 10587 10581 10575 10570 10565 10561 10556 10552 10549 10547 10546 10546 10545 10545 10545 10545 10545 10544 10543 10543 10543 10545 10547 10549 10553 10555 10557 10560 10562 10563
10786 10784 10783 10781 10779 10778 10775 10772 10769 10769 10767 10764 10763 10760 10756 10752 10749 10745 10742 10738 10734 10731 10729 10727 10724 10720 10716 10713 10710 10707 10703 10700 10695 10690 10685 10682 10680 10676 10671 10664 10658 10654 10650 10644 10638 10633 10627 10620 10615 10610 10605 10600 10596 10591 10585 10579 10573 10567 10562 10557 10551 10548 10544 10540 10538 10537 10537 10537 10536 10536 10536 10536 10536 10535 10536 10536 10537 10539 10541 10544 10546 10548 10551 10553 10554
10776 10775 10774 10772 10770 10769 10766 10763 10760 10760 10758 10755 10753 10750 10747 10743 10740 10737 10733 10728 10724 10721 10720 10718 10715 10711 10708 10704 10701 10698 10695 10690 10685 10681 10675 10671 10667 10663 10659 10654 10648 10644 10639 10633 10626 10622 10617 10612 10608 10602 10597 10592 10587 10581 10576 10570 10564 10558 10553 10547 10542 10538 10535 10532 10530 10529 10528 10528 10528 10528 10528 10528 10528 10528 10528 10529 10530 10532 10533 10535 10538 10540 10543 10545 10546
10768 10767 10766 10763 10761 10759 10757 10754 10752 10750 10747 10745 10743 10740 10736 10733 10729 10726 10722 10718 10715 10713 10711 10709 10707 10703 10699 10696 10692 10689 10686 10680 10675 10670 10665 10660 10655 10650 10646 10642 10637 10632 10627 10622 10616 10612 10607 10603 10599 10593 10588 10582 10576 10570 10564 10559 10553 10548 10542 10537 10533 10529 10527 10524 10523 10522 10521 10521 10521 10521 10521 10521 10521 10521 10522 10522 10524 10525 10527 10528 10531 10533 10536 10537 10539
10759 10758 10757 10755 10752 10749 10747 10745 10742 10738 10736 10733 10731 10728 10725 10722 10719 10716 10713 10710 10707 10705 10702 10700 10697 10694 10691 10688 10683 10679 10674 10669 10664 10659 10655 10650 10645 10639 10635 10630 10625 10620 10616 10611 10606 10602 10597 10593 10588 10583 10578 10572 10565 10559 10553 10547 10542 10538 10532 10528 10525 10521 10519 10517 10516 10515 10514 10514 10514 10514 10514 10514 10515 10515 10516 10517 10518 10519 10521 10522 10525 10527 10529 10531 10533
10750 10748 10746 10744 10741 10739 10736 10734 10730 10727 10726 10724 10721 10719 10717 10714 10711 10708 10705 10702 10699 10696 10693 10690 10688 10685 10681 10677 10672 10667 10662 10658 10654 10649 10644 10640 10634 10629 10624 10619 10614 10609 10605 10601 10596 10592 10587 10583 10578 10573 10567 10561 10555 10549 10543 10537 10533 10529 10524 10519 10516 10514 10511 10510 10509 10508 10508 10508 10507 10508 10508 10508 10509 10510 10511 10512 10513 10514 10515 10517 10519 10522 10524 10525 10527
10738 10736 10734 10732 10730 10728 10726 10723 10721 10719 10717 10715 10713 10711 10709 10706 10703 10700 10697 10694 10691 10688 10685 10681 10677 10674 10669 10665 10660 10655 10650 10647 10643 10638 10633 10629 10624 10618 10613 10608 10602 10597 10593 10589 10585 10580 10576 10572 10568 10563 10557 10551 10545 10539 10533 10528 10524 10520 10517 10512 10509 10507 10504 10503 10502 10502 10502 10502 10502 10502 10503 10503 10504 10505 10506 10507 10508 10510 10511 10513 10515 10516 10518 10521 10523
10727 10726 10724 10722 10720 10718 10715 10714 10712 10710 10708 10706 10704 10702 10699 10696 10693 10690 10687 10684 10681 10677 10674 10670 10666 10662 10658 10654 10650 10645 10640 10636 10632 10627 10622 10617 10613 10608 10603 10598 10592 10587 10582 10578 10574 10570 10566 10562 10558 10554 10548 10542 10536 10530 10525 10520 10516 10512 10509 10506 10502 10500 10498 10496 10496 10496 10496 10497 10497 10498 10498 10499 10499 10501 10502 10503 10504 10506 10507 10509 10511 10512 10514 10516 10518
10718 10718 10716 10714 10712 10709 10706 10704 10703 10700 10697 10695 10693 10691 10687 10683 10680 10678 10674 10671 10669 10665 10662 10659 10655 10651 10647 10644 10640 10635 10630 10625 10620 10615 10610 10606 10602 10598 10593 10588 10582 10577 10572 10568 10564 10560 10556 10552 10548 10544 10539 10533 10527 10521 10516 10512 10509 10505 10502 10499 10496 10494 10492 10491 10491 10491 10491 10492 10492 10493 10494 10494 10495 10497 10498 10500 10501 10502 10504 10505 10507 10508 10510 10512 10515
10710 10710 10709 10707 10704 10701 10698 10696 10693 10689 10686 10684 10682 10678 10675 10672 10669 10666 10663 10660 10658 10655 10652 10648 10645 10641 10637 10633 10630 10625 10619 10614 10608 10603 10600 10596 10593 10588 10583 10578 10572 10567 10562 10558 10554 10549 10545 10541 10537 10533 10529 10524 10517 10512 10507 10504 10501 10498 10495 10492 10490 10488 10486 10485 10486 10486 10487 10487 10488 10489 10489 10490 10491 10493 10495 10496 10498 10499 10500 10502 10504 10505 10506 10508 10511
10703 10702 10700 10697 10694 10691 10689 10687 10685 10680 10677 10675 10673 10670 10667 10664 10661 10658 10655 10652 10649 10646 10642 10639 10635 10630 10627 10623 10619 10614 10609 10603 10597 10593 10590 10587 10583 10578 10573 10568 10562 10557 10552 10548 10544 10539 10534 10529 10526 10523 10519 10514 10508 10503 10499 10497 10494 10491 10488 10485 10483 10482 10481 10480 10481 10481 10482 10483 10483 10484 10485 10486 10488 10490 10491 10493 10495 10496 10497 10499 10501 10502 10503 10505 10508
10693 10693 10692 10686 10681 10679 10678 10678 10676 10673 10669 10668 10666 10663 10659 10656 10652 10649 10646 10643 10640 10637 10633 10629 10625 10621 10617 10613 10608 10603 10598 10592 10587 10583 10580 10577 10573 10568 10563 10558 10552 10547 10542 10537 10533 10528 10523 10519 10516 10512 10508 10504 10499 10494 10491 10489 10487 10484 10482 10479 10477 10476 10476 10475 10476 10477 10478 10478 10479 10480 10481 10482 10484 10486 10488 10490 10491 10493 10494 10496 10498 10499 10500 10502 10505
10685 10687 10687 10681 10674 10671 10670 10669 10668 10665 10663 10660 10657 10654 10650 10646 10642 10638 10635 10633 10630 10626 10623 10620 10616 10611 10607 10602 10596 10591 10586 10581 10577 10574 10571 10567 10562 10557 10552 10547 10542 10536 10531 10527 10523 10518 10513 10509 10505 10502 10498 10494 10490 10486 10483 10481 10479 10477 10475 10473 10471 10470 10470 10470 10471 10472 10473 10474 10475 10476 10477 10479 10481 10483 10485 10487 10488 10490 10492 10494 10495 10496 10498 10500 10502
10675 10676 10677 10674 10669 10665 10663 10660 10659 10657 10654 10651 10647 10643 10639 10635 10631 10628 10625 10622 10619 10616 10612 10609 10604 10599 10594 10589 10584 10580 10575 10570 10566 10563 10560 10556 10551 10546 10541 10536 10531 10525 10521 10516 10512 10507 10503 10499 10496 10492 10488 10484 10481 10478 10475 10473 10472 10471 10469 10467 10466 10465 10465 10465 10466 10467 10468 10469 10470 10472 10474 10476 10478 10480 10481 10483 10486 10488 10489 10491 10493 10494 10495 10497 10500
10664 10663 10662 10660 10658 10655 10652 10650 10648 10646 10643 10640 10636 10632 10628 10624 10620 10618 10616 10613 10609 10604 10600 10596 10591 10586 10582 10578 10574 10569 10564 10559 10555 10553 10549 10544 10539 10535 10530 10525 10519 10514 10509 10505 10501 10497 10493 10490 10486 10482 10478 10475 10472 10470 10467 10466 10465 10464 10463 10461 10460 10459 10459 10460 10461 10462 10464 10465 10466 10468 10470 10472 10474 10476 10478 10480 10483 10485 10487 10489 10491 10492 10493 10495 10497
10653 10651 10649 10647 10645 10643 10640 10638 10636 10633 10631 10628 10624 10621 10617 10613 10610 10608 10605 10601 10597 10593 10588 10584 10580 10575 10571 10567 10563 10558 10553 10548 10545 10541 10537 10532 10527 10523 10518 10513 10508 10503 10498 10494 10490 10486 10483 10480 10476 10473 10469 10467 10464 10461 10459 10458 10458 10457 10456 10455 10454 10453 10454 10455 10456 10457 10459 10460 10462 10464 10466 10468 10470 10473 10475 10477 10480 10482 10484 10486 10488 10489 10490 10492 10495
10644 10641 10639 10636 10633 10631 10628 10626 10623 10621 10618 10615 10612 10609 10605 10602 10598 10595 10592 10588 10584 10580 10576 10573 10569 10564 10559 10555 10551 10546 10541 10537 10533 10529 10524 10520 10515 10511 10506 10501 10496 10491 10487 10483 10479 10476 10473 10470 10467 10464 10461 10459 10456 10454 10453 10452 10451 10450 10450 10449 10448 10448 10448 10449 10450 10452 10454 10456 10458 10460 10462 10464 10467 10469 10472 10474 10477 10479 10481 10484 10486 10487 10488 10490 10492
10634 10631 10629 10626 10623 10621 10618 10616 10613 10610 10606 10603 10600 10597 10594 10590 10585 10581 10578 10575 10571 10567 10564 10560 10556 10552 10547 10543 10538 10534 10529 10524 10520 10516 10511 10507 10503 10499 10495 10490 10486 10481 10477 10473 10469 10467 10464 10461 10459 10456 10454 10452 10449 10447 10446 10445 10444 10444 10443 10443 10442 10442 10443 10443 10445 10447 10449 10451 10453 10455 10457 10460 10463 10465 10468 10471 10473 10476 10478 10481 10483 10485 10486 10487 10489
10622 10619 10617 10615 10613 10610 10607 10604 10602 10599 10596 10593 10590 10586 10583 10578 10574 10570 10566 10562 10559 10555 10551 10547 10543 10539 10535 10530 10526 10521 10516 10511 10507 10504 10500 10495 10491 10487 10484 10480 10476 10472 10468 10464 10461 10459 10456 10454 10451 10449 10447 10445 10443 10441 10440 10439 10438 10437 10437 10437 10436 10437 10437 10438 10439 10441 10443 10446 10448 10450 10452 10455 10458 10461 10464 10467 10470 10472 10475 10478 10481 10482 10483 10485 10487
10609 10607 10604 10603 10600 10597 10595 10592 10589 10586 10584 10581 10578 10575 10571 10567 10563 10559 10555 10551 10547 10543 10539 10535 10531 10527 10523 10519 10514 10509 10504 10499 10495 10491 10488 10484 10480 10476 10473 10470 10466 10463 10460 10457 10454 10452 10449 10446 10444 10442 10441 10439 10437 10435 10434 10432 10432 10431 10431 10431 10431 10431 10431 10432 10433 10435 10437 10440 10443 10445 10448 10451 10454 10457 10460 10463 10466 10469 10471 10474 10477 10480 10481 10482 10484
10597 10595 10592 10590 10587 10584 10582 10579 10576 10573 10571 10568 10565 10563 10559 10555 10551 10548 10544 10540 10535 10531 10526 10522 10518 10515 10511 10507 10503 10498 10493 10489 10484 10479 10476 10473 10469 10466 10463 10460 10457 10455 10452 10449 10447 10444 10441 10438 10436 10435 10434 10433 10431 10429 10428 10426 10425 10425 10424 10424 10425 10425 10426 10426 10427 10429 10432 10435 10437 10440 10443 10446 10449 10452 10456 10459 10462 10465 10467 10470 10474 10477 10479 10480 10482
10584 10582 10579 10576 10574 10572 10569 10567 10564 10561 10559 10556 10554 10551 10547 10543 10539 10536 10532 10528 10524 10519 10514 10510 10507 10503 10500 10496 10492 10487 10483 10478 10474 10469 10464 10461 10458 10455 10453 10450 10448 10446 10444 10441 10439 10437 10434 10431 10429 10428 10427 10426 10425 10424 10422 10421 10420 10419 10418 10419 10419 10420 10420 10421 10422 10424 10426 10429 10432 10435 10438 10441 10444 10448 10451 10455 10458 10461 10463 10466 10469 10473 10476 10477 10479
10572 10569 10567 10565 10562 10560 10558 10555 10552 10550 10547 10544 10541 10538 10534 10531 10527 10524 10520 10516 10512 10508 10503 10499 10496 10492 10489 10485 10481 10477 10473 10468 10464 10460 10455 10451 10448 10445 10443 10441 10439 10437 10435 10433 10432 10430 10427 10425 10423 10422 10421 10420 10419 10418 10416 10415 10414 10414 10413 10413 10414 10414 10415 10416 10417 10419 10421 10423 10426 10429 10433 10436 10439 10443 10446 10450 10453 10457 10459 10462 10465 10469 10472 10474 10475
10561 10556 10555 10554 10552 10549 10546 10544 10541 10538 10536 10532 10529 10526 10522 10519 10515 10510 10507 10503 10500 10496 10492 10488 10485 10481 10478 10474 10470 10467 10463 10459 10455 10451 10447 10444 10440 10437 10435 10433 10432 10430 10428 10426 10425 10423 10422 10420 10419 10417 10416 10415 10414 10412 10411 10410 10409 10409 10408 10408 10409 10409 10410 10411 10412 10414 10416 10418 10421 10423 10427 10431 10434 10438 10441 10445 10448 10452 10455 10458 10460 10464 10468 10471 10472
10550 10546 10544 10543 10540 10537 10535 10532 10530 10527 10524 10521 10517 10513 10509 10505 10501 10497 10494 10491 10488 10484 10480 10477 10473 10470 10467 10463 10460 10457 10453 10450 10447 10443 10440 10436 10433 10431 10429 10427 10426 10424 10422 10421 10419 10418 10416 10415 10414 10413 10412 10411 10409 10408 10407 10405 10404 10404 10404 10404 10404 10404 10405 10406 10408 10409 10411 10413 10415 10418 10421 10425 10429 10432 10436 10439 10443 10447 10450 10453 10456 10459 10463 10466 10468
10541 10536 10533 10530 10528 10526 10523 10521 10518 10515 10512 10509 10505 10500 10496 10492 10488 10485 10482 10479 10476 10472 10469 10465 10462 10459 10456 10454 10450 10447 10444 10442 10439 10436 10432 10429 10427 10425 10423 10421 10421 10419 10418 10416 10414 10413 10412 10411 10410 10409 10408 10407 10406 10404 10403 10401 10400 10400 10399 10400 10400 10400 10401 10401 10403 10404 10406 10407 10410 10412 10415 10419 10423 10427 10430 10434 10437 10441 10445 10448 10451 10454 10457 10461 10464
10528 10525 10521 10518 10515 10513 10510 10507 10505 10502 10498 10495 10491 10487 10483 10480 10476 10473 10470 10467 10464 10460 10458 10455 10452 10449 10447 10444 10441 10438 10436 10434 10431 10428 10425 10422 10420 10419 10417 10416 10415 10414 10413 10411 10410 10408 10407 10407 10406 10405 10404 10403 10402 10400 10399 10398 10397 10396 10396 10396 10396 10396 10396 10397 10398 10400 10401 10402 10404 10407 10409 10413 10417 10421 10425 10428 10432 10436 10439 10443 10446 10449 10452 10456 10460
10513 10511 10508 10505 10502 10499 10496 10493 10490 10487 10484 10481 10478 10475 10471 10468 10465 10462 10459 10456 10453 10450 10448 10445 10443 10440 10438 10435 10433 10430 10428 10426 10424 10421 10418 10416 10414 10413 10412 10410 10409 10408 10407 10406 10404 10403 10402 10402 10401 10401 10399 10398 10397 10396 10395 10394 10393 10393 10392 10392 10392 10392 10392 10393 10393 10395 10396 10397 10399 10401 10404 10407 10411 10415 10419 10422 10426 10430 10434 10438 10441 10444 10447 10451 10455
10499 10496 10493 10490 10488 10485 10482 10479 10476 10473 10471 10468 10466 10463 10460 10457 10454 10451 10449 10446 10443 10440 10438 10436 10433 10431 10429 10427 10425 10422 10420 10418 10416 10414 10412 10410 10408 10407 10406 10405 10404 10403 10402 10401 10399 10397 10397 10397 10396 10396 10395 10393 10392 10392 10391 10390 10390 10390 10389 10389 10389 10389 10389 10389 10389 10390 10391 10392 10394 10396 10399 10402 10405 10409 10412 10416 10420 10424 10428 10432 10436 10440 10443 10446 10449
10487 10484 10481 10477 10474 10472 10469 10466 10463 10461 10459 10457 10454 10452 10449 10447 10444 10442 10439 10437 10434 10432 10429 10427 10425 10423 10421 10420 10419 10416 10414 10411 10409 10407 10406 10404 10403 10402 10402 10401 10400 10399 10398 10396 10394 10392 10392 10392 10392 10391 10390 10389 10388 10387 10387 10387 10386 10386 10386 10386 10386 10385 10385 10385 10386 10386 10387 10388 10389 10391 10393 10396 10399 10403 10406 10410 10414 10418 10422 10426 10430 10434 10438 10441 10444
10475 10471 10468 10465 10462 10459 10457 10454 10452 10450 10448 10446 10444 10441 10440 10438 10435 10433 10431 10429 10427 10425 10422 10419 10417 10415 10414 10413 10412 10411 10409 10406 10404 10402 10400 10398 10397 10396 10396 10396 10395 10394 10393 10391 10389 10388 10388 10388 10387 10386 10385 10384 10384 10383 10383 10383 10383 10383 10383 10383 10382 10382 10382 10382 10382 10383 10384 10384 10385 10386 10388 10390 10393 10397 10400 10404 10408 10412 10416 10420 10424 10427 10432 10436 10439